Location: Bishop's University Astronomical Observatory
(45.3661°N, 71.8475°W)
Time: 06:48:33
(UTC-05:00)

CZ-4C R/B - Visible Passes

Search period start: 27 February 2017 00:00
Search period end: 09 March 2017 00:00
Orbit: 723 x 1279 km, 63.4° (Epoch: 26 February)

Date Brightness Start Highest point End Pass type
(mag) Time Alt. Az. Time Alt. Az. Time Alt. Az.
27 Feb 4.6 02:42:34 13° ESE 02:42:42 13° ESE 02:45:20 10° ENE visible
27 Feb 2.1 04:27:47 37° SSW 04:30:02 87° SE 04:36:08 10° NE visible
28 Feb 3.5 03:15:29 32° ESE 03:15:29 32° ESE 03:20:38 10° NE visible
28 Feb 2.6 05:00:43 25° WSW 05:03:43 48° NW 05:09:43 10° NNE visible
01 Mar 2.2 03:48:20 70° SSE 03:48:39 72° ESE 03:54:40 10° NE visible
01 Mar 3.4 05:33:32 12° W 05:37:48 29° NNW 05:43:14 10° NNE visible
02 Mar 4.2 02:35:54 23° E 02:35:54 23° E 02:38:57 10° ENE visible
02 Mar 2.3 04:21:06 48° W 04:22:13 57° NW 04:28:18 10° NNE visible
03 Mar 3.0 03:08:36 47° ENE 03:08:36 47° ENE 03:13:10 10° NE visible
03 Mar 3.2 04:53:48 23° WNW 04:56:13 32° NW 05:01:49 10° NNE visible
04 Mar 4.8 01:56:03 14° ENE 01:56:03 14° ENE 01:57:12 10° ENE visible
04 Mar 2.3 03:41:14 64° NNW 03:41:14 64° NNW 03:46:54 10° NE visible
04 Mar 3.9 05:26:26 11° WNW 05:30:34 22° NNW 05:35:25 10° NNE visible
05 Mar 4.0 02:28:39 28° ENE 02:28:39 28° ENE 02:31:40 10° NE visible
05 Mar 2.9 04:13:50 35° NW 04:14:39 37° NW 04:20:25 10° NNE visible
06 Mar 3.1 03:01:12 45° NNE 03:01:12 45° NNE 03:05:28 10° NE visible
06 Mar 3.7 04:46:23 18° WNW 04:48:55 24° NNW 04:53:58 10° NNE visible
07 Mar 4.6 01:48:32 18° ENE 01:48:32 18° ENE 01:50:06 10° NE visible
07 Mar 3.0 03:33:42 41° NNW 03:33:42 41° NNW 03:39:01 10° NNE visible
07 Mar 4.2 05:19:33 10° NW 05:23:29 18° NNW 05:27:45 10° NNE visible
08 Mar 3.9 02:21:01 30° NE 02:21:01 30° NE 02:24:01 10° NE visible
08 Mar 3.5 04:06:11 25° NW 04:07:17 26° NNW 04:12:33 10° NNE visible
